Home   Weather   Port St. Lucie   Past weeks

Flag for USA Past Weather in Port St. Lucie, Florida, USA — Yesterday and Last 2 Weeks

79 °F

Partly cloudy.

Feels Like: 81 °F
Forecast: 74 / 81 °F
Wind: N/A

Location: Witham Field Airport

Current Time: Oct 26, 2016 at 11:16:08 PM

Latest Report: Oct 26, 2016 at 10:35 PM

Visibility: 10 mi

Pressure: 30.19 "Hg

Humidity: 61%

Dew Point: 64 °F

Location of Port St. LucieLocation

Past Weather in Port St. Lucie — Graph


Port St. Lucie Temperature Yesterday

Maximum temperature yesterday: 82 °F (at 11:47 AM)
Minimum temperature yesterday: 72 °F (at 3:55 AM)
Average temperature yesterday: 77 °F

High & Low Weather Summary for the Past Weeks

High88 °F (Oct 13, 1:47 PM)89% (Oct 12, 2:55 AM)30.22 "Hg (Oct 12, 2:55 AM)
Low63 °F (Oct 23, 6:35 AM)42% (Oct 22, 3:47 PM)29.78 "Hg (Oct 21, 3:55 PM)
Average79 °F66%30.03 "Hg
* Reported Oct 11 5:47 PM — Oct 26 4:47 PM, Port St. Lucie, Weather by CustomWeather, © 2016

Note: Actual official high and low records may vary slightly from our data, if they occured in-between our weather recording intervals... More about our weather records


Port St. Lucie Weather History for the Previous 24 Hours

Scroll right to see more
Time TempWeatherWind HumidityBarometerVisibility
4:47 PM
Wed, Oct 26
79 °FScattered showers. Broken clouds.21 mph79%30.14 "Hg6 mi
3:47 PM82 °FRain showers. Broken clouds.18 mph66%30.13 "Hg7 mi
2:47 PM84 °FBroken clouds.15 mph55%30.15 "Hg7 mi
1:47 PM84 °FScattered clouds.18 mph51%30.17 "Hg7 mi
12:47 PM84 °FScattered clouds.16 mph45%30.19 "Hg7 mi
11:47 AM84 °FScattered clouds.17 mph48%30.20 "Hg7 mi
10:47 AM82 °FScattered clouds.14 mph48%30.20 "Hg7 mi
9:47 AM82 °FScattered clouds.16 mph55%30.20 "Hg7 mi
8:47 AM81 °FScattered clouds.16 mph54%30.18 "Hg7 mi
7:47 AM79 °FScattered clouds.12 mph58%30.16 "Hg7 mi
6:47 AM79 °FPassing clouds.21 mph51%30.15 "Hg7 mi
6:35 AM79 °FClear.N/A51%30.15 "Hg10 mi
6:15 AM79 °FClear.N/A51%30.15 "Hg10 mi
5:55 AM79 °FClear.N/A51%30.15 "Hg10 mi
5:35 AM79 °FPassing clouds.N/A54%30.15 "Hg10 mi
5:15 AM79 °FPassing clouds.N/A54%30.15 "Hg10 mi
4:55 AM79 °FPassing clouds.N/A58%30.15 "Hg10 mi
4:35 AM79 °FPassing clouds.N/A58%30.14 "Hg10 mi
4:15 AM79 °FPassing clouds.N/A58%30.15 "Hg10 mi
3:55 AM79 °FClear.N/A58%30.14 "Hg10 mi
3:35 AM79 °FClear.N/A58%30.15 "Hg10 mi
3:15 AM79 °FPassing clouds.N/A58%30.15 "Hg10 mi
2:55 AM79 °FPassing clouds.N/A54%30.16 "Hg10 mi
2:35 AM79 °FPassing clouds.N/A58%30.16 "Hg10 mi
2:15 AM79 °FPassing clouds.N/A58%30.17 "Hg10 mi
1:55 AM79 °FClear.N/A58%30.17 "Hg10 mi
1:35 AM79 °FClear.N/A58%30.17 "Hg10 mi
1:15 AM79 °FPassing clouds.N/A58%30.17 "Hg10 mi
12:55 AM79 °FPassing clouds.N/A58%30.18 "Hg10 mi
12:35 AM79 °FPassing clouds.N/A58%30.18 "Hg10 mi
12:15 AM79 °FClear.N/A58%30.18 "Hg10 mi
11:55 PM
Tue, Oct 25
77 °FClear.N/A61%30.18 "Hg10 mi
11:35 PM79 °FPassing clouds.N/A58%30.18 "Hg10 mi
11:15 PM79 °FPassing clouds.N/A58%30.18 "Hg10 mi
Weather by CustomWeather, © 2016

See weather overviewHow to use our weather pages